User: anonymous   Login
Location: Stigler
(35.2540°N, 95.1230°W)
Time: 19:45:17
(UTC-05:00)
Language:

Cosmos 1805 - Orbit

View from above orbital plane
View from above orbital plane
View from above satellite
View from above satellite

Ground track
Ground track

The orbit data is extracted from the following two-line orbital elements,

1 17191U 86097A   17084.56946631 +.00000413 +00000-0 +22531-4 0  9994
2 17191 082.4707 111.8290 0005400 023.4897 336.6579 15.11645330650721
Epoch (UTC): 25 March 2017 13:40:01
Eccentricity: 0.0005400
inclination: 82.4707°
perigee height: 527 km
apogee height: 535 km
right ascension of ascending node: 111.8290°
argument of perigee: 23.4897°
revolutions per day: 15.11645330
mean anomaly at epoch: 336.6579°
orbit number at epoch: 65072

The dashed part of the orbit path shows where the satellite is in the earth's shadow,  

DLR